Year,Month,Day,Hour,Minute,Value (Times are PST for temperature in C)
2015,07,20,00,00,24.00
2015,07,20,00,01,24.10
2015,07,20,00,02,24.10
2015,07,20,00,03,24.10
2015,07,20,00,04,24.10
2015,07,20,00,05,24.10
2015,07,20,00,06,24.10
2015,07,20,00,07,24.20
2015,07,20,00,08,24.20
2015,07,20,00,09,24.20
2015,07,20,00,10,24.30
2015,07,20,00,11,24.30
2015,07,20,00,12,24.30
2015,07,20,00,13,24.30
2015,07,20,00,14,24.30
2015,07,20,00,15,24.30
2015,07,20,00,16,24.30
2015,07,20,00,17,24.30
2015,07,20,00,18,24.30
2015,07,20,00,19,24.30
2015,07,20,00,20,24.30
2015,07,20,00,21,24.30
2015,07,20,00,22,24.30
2015,07,20,00,23,24.30
2015,07,20,00,24,24.30
2015,07,20,00,25,24.30
2015,07,20,00,26,24.30
2015,07,20,00,27,24.30
2015,07,20,00,28,24.30
2015,07,20,00,29,24.30
2015,07,20,00,30,24.30
2015,07,20,00,31,24.30
2015,07,20,00,32,24.30
2015,07,20,00,33,24.30
2015,07,20,00,34,24.30
2015,07,20,00,35,24.30
2015,07,20,00,36,24.30
2015,07,20,00,37,24.30
2015,07,20,00,38,24.20
2015,07,20,00,39,24.20
2015,07,20,00,40,24.20
2015,07,20,00,41,24.20
2015,07,20,00,42,24.10
2015,07,20,00,43,24.10
2015,07,20,00,44,24.10
2015,07,20,00,45,24.10
2015,07,20,00,46,24.10
2015,07,20,00,47,24.10
2015,07,20,00,48,24.10
2015,07,20,00,49,24.00
2015,07,20,00,50,24.00
2015,07,20,00,51,24.00
2015,07,20,00,52,23.90
2015,07,20,00,53,23.90
2015,07,20,00,54,23.90
2015,07,20,00,55,23.80
2015,07,20,00,56,23.80
2015,07,20,00,57,23.80
2015,07,20,00,58,23.80
2015,07,20,00,59,23.70
2015,07,20,01,00,23.70
2015,07,20,01,01,23.60
2015,07,20,01,02,23.60
2015,07,20,01,03,23.60
2015,07,20,01,04,23.50
2015,07,20,01,05,23.50
2015,07,20,01,06,23.40
2015,07,20,01,07,23.40
2015,07,20,01,08,23.40
2015,07,20,01,09,23.30
2015,07,20,01,10,23.30
2015,07,20,01,11,23.30
2015,07,20,01,12,23.20
2015,07,20,01,13,23.20
2015,07,20,01,14,23.10
2015,07,20,01,15,23.10
2015,07,20,01,16,23.00
2015,07,20,01,17,23.00
2015,07,20,01,18,22.90
2015,07,20,01,19,22.90
2015,07,20,01,20,22.80
2015,07,20,01,21,22.80
2015,07,20,01,22,22.70
2015,07,20,01,23,22.70
2015,07,20,01,24,22.70
2015,07,20,01,25,22.70
2015,07,20,01,26,22.60
2015,07,20,01,27,22.60
2015,07,20,01,28,22.60
2015,07,20,01,29,22.60
2015,07,20,01,30,22.60
2015,07,20,01,31,22.60
2015,07,20,01,32,22.50
2015,07,20,01,33,22.50
2015,07,20,01,34,22.50
2015,07,20,01,35,22.40
2015,07,20,01,36,22.40
2015,07,20,01,37,22.40
2015,07,20,01,38,22.30
2015,07,20,01,39,22.30
2015,07,20,01,40,22.30
2015,07,20,01,41,22.30
2015,07,20,01,42,22.30
2015,07,20,01,43,22.20
2015,07,20,01,44,22.20
2015,07,20,01,45,22.20
2015,07,20,01,46,22.20
2015,07,20,01,47,22.20
2015,07,20,01,48,22.20
2015,07,20,01,49,22.20
2015,07,20,01,50,22.20
2015,07,20,01,51,22.10
2015,07,20,01,52,22.10
2015,07,20,01,53,22.10
2015,07,20,01,54,22.10
2015,07,20,01,55,22.00
2015,07,20,01,56,22.00
2015,07,20,01,57,22.00
2015,07,20,01,58,22.00
2015,07,20,01,59,21.90
2015,07,20,02,00,21.90
2015,07,20,02,01,21.90
2015,07,20,02,02,21.90
2015,07,20,02,03,21.80
2015,07,20,02,04,21.80
2015,07,20,02,05,21.80
2015,07,20,02,06,21.80
2015,07,20,02,07,21.80
2015,07,20,02,08,21.80
2015,07,20,02,09,21.80
2015,07,20,02,10,21.80
2015,07,20,02,11,21.70
2015,07,20,02,12,21.70
2015,07,20,02,13,21.70
2015,07,20,02,14,21.70
2015,07,20,02,15,21.60
2015,07,20,02,16,21.60
2015,07,20,02,17,21.60
2015,07,20,02,18,21.60
2015,07,20,02,19,21.50
2015,07,20,02,20,21.50
2015,07,20,02,21,21.50
2015,07,20,02,22,21.50
2015,07,20,02,23,21.50
2015,07,20,02,24,21.40
2015,07,20,02,25,21.40
2015,07,20,02,26,21.40
2015,07,20,02,27,21.40
2015,07,20,02,28,21.30
2015,07,20,02,29,21.30
2015,07,20,02,30,21.30
2015,07,20,02,31,21.30
2015,07,20,02,32,21.20
2015,07,20,02,33,21.20
2015,07,20,02,34,21.20
2015,07,20,02,35,21.20
2015,07,20,02,36,21.20
2015,07,20,02,37,21.20
2015,07,20,02,38,21.10
2015,07,20,02,39,21.10
2015,07,20,02,40,21.10
2015,07,20,02,41,21.10
2015,07,20,02,42,21.10
2015,07,20,02,43,21.00
2015,07,20,02,44,21.00
2015,07,20,02,45,20.90
2015,07,20,02,46,20.90
2015,07,20,02,47,20.90
2015,07,20,02,48,20.90
2015,07,20,02,49,20.80
2015,07,20,02,50,20.80
2015,07,20,02,51,20.80
2015,07,20,02,52,20.80
2015,07,20,02,53,20.80
2015,07,20,02,54,20.80
2015,07,20,02,55,20.80
2015,07,20,02,56,20.80
2015,07,20,02,57,20.70
2015,07,20,02,58,20.70
2015,07,20,02,59,20.60
2015,07,20,03,00,20.60
2015,07,20,03,01,20.60
2015,07,20,03,02,20.50
2015,07,20,03,03,20.50
2015,07,20,03,04,20.40
2015,07,20,03,05,20.40
2015,07,20,03,06,20.40
2015,07,20,03,07,20.30
2015,07,20,03,08,20.30
2015,07,20,03,09,20.30
2015,07,20,03,10,20.30
2015,07,20,03,11,20.20
2015,07,20,03,12,20.20
2015,07,20,03,13,20.10
2015,07,20,03,14,20.10
2015,07,20,03,15,20.10
2015,07,20,03,16,20.00
2015,07,20,03,17,20.00
2015,07,20,03,18,19.90
2015,07,20,03,19,19.90
2015,07,20,03,20,19.80
2015,07,20,03,21,19.80
2015,07,20,03,22,19.80
2015,07,20,03,23,19.70
2015,07,20,03,24,19.70
2015,07,20,03,25,19.60
2015,07,20,03,26,19.60
2015,07,20,03,27,19.50
2015,07,20,03,28,19.50
2015,07,20,03,29,19.40
2015,07,20,03,30,19.40
2015,07,20,03,31,19.40
2015,07,20,03,32,19.40
2015,07,20,03,33,19.40
2015,07,20,03,34,19.40
2015,07,20,03,35,19.40
2015,07,20,03,36,19.30
2015,07,20,03,37,19.30
2015,07,20,03,38,19.20
2015,07,20,03,39,19.20
2015,07,20,03,40,19.10
2015,07,20,03,41,19.00
2015,07,20,03,42,19.00
2015,07,20,03,43,18.90
2015,07,20,03,44,18.80
2015,07,20,03,45,18.80
2015,07,20,03,46,18.70
2015,07,20,03,47,18.60
2015,07,20,03,48,18.50
2015,07,20,03,49,18.50
2015,07,20,03,50,18.40
2015,07,20,03,51,18.50
2015,07,20,03,52,18.50
2015,07,20,03,53,18.50
2015,07,20,03,54,18.60
2015,07,20,03,55,18.60
2015,07,20,03,56,18.70
2015,07,20,03,57,18.70
2015,07,20,03,58,18.80
2015,07,20,03,59,18.80
2015,07,20,04,00,18.90
2015,07,20,04,01,18.90
2015,07,20,04,02,19.00
2015,07,20,04,03,19.00
2015,07,20,04,04,19.10
2015,07,20,04,05,19.20
2015,07,20,04,06,19.20
2015,07,20,04,07,19.20
2015,07,20,04,08,19.30
2015,07,20,04,09,19.30
2015,07,20,04,10,19.30
2015,07,20,04,11,19.40
2015,07,20,04,12,19.40
2015,07,20,04,13,19.50
2015,07,20,04,14,19.50
2015,07,20,04,15,19.50
2015,07,20,04,16,19.50
2015,07,20,04,17,19.50
2015,07,20,04,18,19.60
2015,07,20,04,19,19.60
2015,07,20,04,20,19.60
2015,07,20,04,21,19.60
2015,07,20,04,22,19.60
2015,07,20,04,23,19.60
2015,07,20,04,24,19.60
2015,07,20,04,25,19.60
2015,07,20,04,26,19.60
2015,07,20,04,27,19.50
2015,07,20,04,28,19.50
2015,07,20,04,29,19.50
2015,07,20,04,30,19.40
2015,07,20,04,31,19.40
2015,07,20,04,32,19.30
2015,07,20,04,33,19.30
2015,07,20,04,34,19.30
2015,07,20,04,35,19.20
2015,07,20,04,36,19.10
2015,07,20,04,37,19.00
2015,07,20,04,38,18.90
2015,07,20,04,39,18.80
2015,07,20,04,40,18.80
2015,07,20,04,41,18.70
2015,07,20,04,42,18.70
2015,07,20,04,43,18.60
2015,07,20,04,44,18.60
2015,07,20,04,45,18.50
2015,07,20,04,46,18.50
2015,07,20,04,47,18.40
2015,07,20,04,48,18.40
2015,07,20,04,49,18.30
2015,07,20,04,50,18.30
2015,07,20,04,51,18.20
2015,07,20,04,52,18.20
2015,07,20,04,53,18.10
2015,07,20,04,54,18.10
2015,07,20,04,55,18.00
2015,07,20,04,56,18.00
2015,07,20,04,57,17.90
2015,07,20,04,58,18.00
2015,07,20,04,59,18.00
2015,07,20,05,00,18.10
2015,07,20,05,01,18.10
2015,07,20,05,02,18.10
2015,07,20,05,03,18.10
2015,07,20,05,04,18.00
2015,07,20,05,05,17.90
2015,07,20,05,06,17.80
2015,07,20,05,07,17.70
2015,07,20,05,08,17.60
2015,07,20,05,09,17.50
2015,07,20,05,10,17.40
2015,07,20,05,11,17.40
2015,07,20,05,12,17.30
2015,07,20,05,13,17.20
2015,07,20,05,14,17.20
2015,07,20,05,15,17.20
2015,07,20,05,16,17.20
2015,07,20,05,17,17.30
2015,07,20,05,18,17.40
2015,07,20,05,19,17.60
2015,07,20,05,20,17.70
2015,07,20,05,21,17.90
2015,07,20,05,22,18.00
2015,07,20,05,23,18.10
2015,07,20,05,24,18.10
2015,07,20,05,25,18.00
2015,07,20,05,26,17.80
2015,07,20,05,27,17.70
2015,07,20,05,28,17.60
2015,07,20,05,29,17.50
2015,07,20,05,30,17.40
2015,07,20,05,31,17.30
2015,07,20,05,32,17.20
2015,07,20,05,33,17.20
2015,07,20,05,34,17.10
2015,07,20,05,35,17.00
2015,07,20,05,36,16.90
2015,07,20,05,37,16.90
2015,07,20,05,38,16.80
2015,07,20,05,39,16.70
2015,07,20,05,40,16.70
2015,07,20,05,41,16.60
2015,07,20,05,42,16.60
2015,07,20,05,43,16.50
2015,07,20,05,44,16.50
2015,07,20,05,45,16.40
2015,07,20,05,46,16.40
2015,07,20,05,47,16.30
2015,07,20,05,48,16.30
2015,07,20,05,49,16.30
2015,07,20,05,50,16.20
2015,07,20,05,51,16.20
2015,07,20,05,52,16.20
2015,07,20,05,53,16.10
2015,07,20,05,54,16.10
2015,07,20,05,55,16.10
2015,07,20,05,56,16.10
2015,07,20,05,57,16.10
2015,07,20,05,58,16.10
2015,07,20,05,59,16.10
2015,07,20,06,00,16.10
2015,07,20,06,01,16.10
2015,07,20,06,02,16.10
2015,07,20,06,03,16.20
2015,07,20,06,04,16.20
2015,07,20,06,05,16.20
2015,07,20,06,06,16.20
2015,07,20,06,07,16.20
2015,07,20,06,08,16.20
2015,07,20,06,09,16.20
2015,07,20,06,10,16.20
2015,07,20,06,11,16.20
2015,07,20,06,12,16.20
2015,07,20,06,13,16.10
2015,07,20,06,14,16.10
2015,07,20,06,15,16.10
2015,07,20,06,16,16.10
2015,07,20,06,17,16.10
2015,07,20,06,18,16.10
2015,07,20,06,19,16.10
2015,07,20,06,20,16.20
2015,07,20,06,21,16.20
2015,07,20,06,22,16.30
2015,07,20,06,23,16.30
2015,07,20,06,24,16.30
2015,07,20,06,25,16.30
2015,07,20,06,26,16.40
2015,07,20,06,27,16.40
2015,07,20,06,28,16.50
2015,07,20,06,29,16.60
2015,07,20,06,30,16.60
2015,07,20,06,31,16.70
2015,07,20,06,32,16.70
2015,07,20,06,33,16.70
2015,07,20,06,34,16.80
2015,07,20,06,35,16.80
2015,07,20,06,36,16.80
2015,07,20,06,37,16.90
2015,07,20,06,38,16.90
2015,07,20,06,39,16.90
2015,07,20,06,40,17.00
2015,07,20,06,41,17.00
2015,07,20,06,42,17.10
2015,07,20,06,43,17.10
2015,07,20,06,44,17.20
2015,07,20,06,45,17.20
2015,07,20,06,46,17.30
2015,07,20,06,47,17.30
2015,07,20,06,48,17.30
2015,07,20,06,49,17.40
2015,07,20,06,50,17.40
2015,07,20,06,51,17.40
2015,07,20,06,52,17.50
2015,07,20,06,53,17.50
2015,07,20,06,54,17.60
2015,07,20,06,55,17.70
2015,07,20,06,56,17.70
2015,07,20,06,57,17.80
2015,07,20,06,58,17.80
2015,07,20,06,59,17.90
2015,07,20,07,00,17.90
2015,07,20,07,01,18.00
2015,07,20,07,02,18.00
2015,07,20,07,03,18.10
2015,07,20,07,04,18.10
2015,07,20,07,05,18.20
2015,07,20,07,06,18.30
2015,07,20,07,07,18.30
2015,07,20,07,08,18.30
2015,07,20,07,09,18.40
2015,07,20,07,10,18.50
2015,07,20,07,11,18.50
2015,07,20,07,12,18.60
2015,07,20,07,13,18.70
2015,07,20,07,14,18.70
2015,07,20,07,15,18.80
2015,07,20,07,16,18.80
2015,07,20,07,17,18.80
2015,07,20,07,18,18.90
2015,07,20,07,19,18.90
2015,07,20,07,20,18.90
2015,07,20,07,21,18.90
2015,07,20,07,22,19.00
2015,07,20,07,23,19.00
2015,07,20,07,24,19.00
2015,07,20,07,25,19.00
2015,07,20,07,26,19.10
2015,07,20,07,27,19.10
2015,07,20,07,28,19.10
2015,07,20,07,29,19.10
2015,07,20,07,30,19.10
2015,07,20,07,31,19.10
2015,07,20,07,32,19.10
2015,07,20,07,33,19.10
2015,07,20,07,34,19.10
2015,07,20,07,35,19.20
2015,07,20,07,36,19.20
2015,07,20,07,37,19.20
2015,07,20,07,38,19.30
2015,07,20,07,39,19.40
2015,07,20,07,40,19.40
2015,07,20,07,41,19.50
2015,07,20,07,42,19.60
2015,07,20,07,43,19.70
2015,07,20,07,44,19.80
2015,07,20,07,45,19.80
2015,07,20,07,46,19.90
2015,07,20,07,47,20.00
2015,07,20,07,48,20.10
2015,07,20,07,49,20.10
2015,07,20,07,50,20.20
2015,07,20,07,51,20.30
2015,07,20,07,52,20.30
2015,07,20,07,53,20.40
2015,07,20,07,54,20.40
2015,07,20,07,55,20.40
2015,07,20,07,56,20.40
2015,07,20,07,57,20.40
2015,07,20,07,58,20.40
2015,07,20,07,59,20.40
2015,07,20,08,00,20.40
2015,07,20,08,01,20.40
2015,07,20,08,02,20.40
2015,07,20,08,03,20.40
2015,07,20,08,04,20.50
2015,07,20,08,05,20.50
2015,07,20,08,06,20.50
2015,07,20,08,07,20.50
2015,07,20,08,08,20.50
2015,07,20,08,09,20.50
2015,07,20,08,10,20.50
2015,07,20,08,11,20.50
2015,07,20,08,12,20.40
2015,07,20,08,13,20.40
2015,07,20,08,14,20.40
2015,07,20,08,15,20.40
2015,07,20,08,16,20.40
2015,07,20,08,17,20.40
2015,07,20,08,18,20.40
2015,07,20,08,19,20.40
2015,07,20,08,20,20.50
2015,07,20,08,21,20.50
2015,07,20,08,22,20.60
2015,07,20,08,23,20.50
2015,07,20,08,24,20.50
2015,07,20,08,25,20.50
2015,07,20,08,26,20.50
2015,07,20,08,27,20.50
2015,07,20,08,28,20.50
2015,07,20,08,29,20.40
2015,07,20,08,30,20.40
2015,07,20,08,31,20.40
2015,07,20,08,32,20.50
2015,07,20,08,33,20.50
2015,07,20,08,34,20.60
2015,07,20,08,35,20.60
2015,07,20,08,36,20.70
2015,07,20,08,37,20.80
2015,07,20,08,38,20.80
2015,07,20,08,39,20.90
2015,07,20,08,40,20.90
2015,07,20,08,41,21.00
2015,07,20,08,42,21.10
2015,07,20,08,43,21.10
2015,07,20,08,44,21.20
2015,07,20,08,45,21.20
2015,07,20,08,46,21.30
2015,07,20,08,47,21.40
2015,07,20,08,48,21.40
2015,07,20,08,49,21.40
2015,07,20,08,50,21.50
2015,07,20,08,51,21.50
2015,07,20,08,52,21.50
2015,07,20,08,53,21.50
2015,07,20,08,54,21.40
2015,07,20,08,55,21.30
2015,07,20,08,56,21.20
2015,07,20,08,57,21.10
2015,07,20,08,58,21.10
2015,07,20,08,59,21.10
2015,07,20,09,00,21.10
2015,07,20,09,01,21.10
2015,07,20,09,02,21.00
2015,07,20,09,03,20.90
2015,07,20,09,04,20.80
2015,07,20,09,05,20.70
2015,07,20,09,06,20.70
2015,07,20,09,07,20.60
2015,07,20,09,08,20.50
2015,07,20,09,09,20.40
2015,07,20,09,10,20.40
2015,07,20,09,11,20.30
2015,07,20,09,12,20.30
2015,07,20,09,13,20.30
2015,07,20,09,14,20.30
2015,07,20,09,15,20.30
2015,07,20,09,16,20.20
2015,07,20,09,17,20.30
2015,07,20,09,18,20.30
2015,07,20,09,19,20.30
2015,07,20,09,20,20.40
2015,07,20,09,21,20.40
2015,07,20,09,22,20.50
2015,07,20,09,23,20.50
2015,07,20,09,24,20.50
2015,07,20,09,25,20.50
2015,07,20,09,26,20.50
2015,07,20,09,27,20.50
2015,07,20,09,28,20.50
2015,07,20,09,29,20.50
2015,07,20,09,30,20.60
2015,07,20,09,31,20.60
2015,07,20,09,32,20.60
2015,07,20,09,33,20.70
2015,07,20,09,34,20.70
2015,07,20,09,35,20.80
2015,07,20,09,36,20.80
2015,07,20,09,37,20.80
2015,07,20,09,38,20.90
2015,07,20,09,39,20.80
2015,07,20,09,40,20.80
2015,07,20,09,41,20.70
2015,07,20,09,42,20.60
2015,07,20,09,43,20.60
2015,07,20,09,44,20.60
2015,07,20,09,45,20.60
2015,07,20,09,46,20.60
2015,07,20,09,47,20.60
2015,07,20,09,48,20.60
2015,07,20,09,49,20.60
2015,07,20,09,50,20.60
2015,07,20,09,51,20.60
2015,07,20,09,52,20.60
2015,07,20,09,53,20.60
2015,07,20,09,54,20.60
2015,07,20,09,55,20.50
2015,07,20,09,56,20.40
2015,07,20,09,57,20.40
2015,07,20,09,58,20.40
2015,07,20,09,59,20.50
2015,07,20,10,00,20.50
2015,07,20,10,01,20.60
2015,07,20,10,02,20.70
2015,07,20,10,03,20.70
2015,07,20,10,04,20.80
2015,07,20,10,05,20.80
2015,07,20,10,06,20.80
2015,07,20,10,07,20.80
2015,07,20,10,08,20.80
2015,07,20,10,09,20.80
2015,07,20,10,10,20.90
2015,07,20,10,11,20.90
2015,07,20,10,12,20.90
2015,07,20,10,13,21.00
2015,07,20,10,14,21.00
2015,07,20,10,15,21.00
2015,07,20,10,16,21.10
2015,07,20,10,17,21.10
2015,07,20,10,18,21.10
2015,07,20,10,19,21.10
2015,07,20,10,20,21.10
2015,07,20,10,21,21.20
2015,07,20,10,22,21.20
2015,07,20,10,23,21.20
2015,07,20,10,24,21.20
2015,07,20,10,25,21.20
2015,07,20,10,26,21.20
2015,07,20,10,27,21.30
2015,07,20,10,28,21.30
2015,07,20,10,29,21.40
2015,07,20,10,30,21.40
2015,07,20,10,31,21.40
2015,07,20,10,32,21.40
2015,07,20,10,33,21.40
2015,07,20,10,34,21.40
2015,07,20,10,35,21.40
2015,07,20,10,36,21.40
2015,07,20,10,37,21.40
2015,07,20,10,38,21.40
2015,07,20,10,39,21.40
2015,07,20,10,40,21.40
2015,07,20,10,41,21.50
2015,07,20,10,42,21.50
2015,07,20,10,43,21.50
2015,07,20,10,44,21.50
2015,07,20,10,45,21.50
2015,07,20,10,46,21.50
2015,07,20,10,47,21.60
2015,07,20,10,48,21.60
2015,07,20,10,49,21.60
2015,07,20,10,50,21.60
2015,07,20,10,51,21.60
2015,07,20,10,52,21.60
2015,07,20,10,53,21.60
2015,07,20,10,54,21.60
2015,07,20,10,55,21.60
2015,07,20,10,56,21.60
2015,07,20,10,57,21.60
2015,07,20,10,58,21.50
2015,07,20,10,59,21.40
2015,07,20,11,00,21.40
2015,07,20,11,01,21.30
2015,07,20,11,02,21.30
2015,07,20,11,03,21.30
2015,07,20,11,04,21.30
2015,07,20,11,05,21.30
2015,07,20,11,06,21.20
2015,07,20,11,07,21.20
2015,07,20,11,08,21.10
2015,07,20,11,09,21.00
2015,07,20,11,10,21.00
2015,07,20,11,11,21.00
2015,07,20,11,12,20.90
2015,07,20,11,13,20.90
2015,07,20,11,14,20.80
2015,07,20,11,15,20.80
2015,07,20,11,16,20.80
2015,07,20,11,17,20.80
2015,07,20,11,18,20.70
2015,07,20,11,19,20.70
2015,07,20,11,20,20.70
2015,07,20,11,21,20.70
2015,07,20,11,22,20.70
2015,07,20,11,23,20.70
2015,07,20,11,24,20.60
2015,07,20,11,25,20.50
2015,07,20,11,26,20.50
2015,07,20,11,27,20.50
2015,07,20,11,28,20.50
2015,07,20,11,29,20.50
2015,07,20,11,30,20.50
2015,07,20,11,31,20.50
2015,07,20,11,32,20.50
2015,07,20,11,33,20.40
2015,07,20,11,34,20.40
2015,07,20,11,35,20.40
2015,07,20,11,36,20.40
2015,07,20,11,37,20.40
2015,07,20,11,38,20.40
2015,07,20,11,39,20.40
2015,07,20,11,40,20.40
2015,07,20,11,41,20.40
2015,07,20,11,42,20.50
2015,07,20,11,43,20.60
2015,07,20,11,44,20.70
2015,07,20,11,45,20.80
2015,07,20,11,46,20.80
2015,07,20,11,47,20.80
2015,07,20,11,48,20.80
2015,07,20,11,49,20.90
2015,07,20,11,50,20.90
2015,07,20,11,51,20.90
2015,07,20,11,52,20.90
2015,07,20,11,53,20.90
2015,07,20,11,54,20.90
2015,07,20,11,55,20.90
2015,07,20,11,56,20.90
2015,07,20,11,57,21.00
2015,07,20,11,58,21.00
2015,07,20,11,59,21.00
2015,07,20,12,00,20.90
2015,07,20,12,01,20.90
2015,07,20,12,02,20.90
2015,07,20,12,03,20.80
2015,07,20,12,04,20.80
2015,07,20,12,05,20.80
2015,07,20,12,06,20.70
2015,07,20,12,07,20.70
2015,07,20,12,08,20.70
2015,07,20,12,09,20.70
2015,07,20,12,10,20.70
2015,07,20,12,11,20.70
2015,07,20,12,12,20.70
2015,07,20,12,13,20.70
2015,07,20,12,14,20.70
2015,07,20,12,15,20.80
2015,07,20,12,16,20.90
2015,07,20,12,17,20.90
2015,07,20,12,18,21.00
2015,07,20,12,19,21.10
2015,07,20,12,20,21.10
2015,07,20,12,21,21.10
2015,07,20,12,22,21.10
2015,07,20,12,23,21.10
2015,07,20,12,24,21.10
2015,07,20,12,25,21.10
2015,07,20,12,26,21.10
2015,07,20,12,27,21.00
2015,07,20,12,28,21.00
2015,07,20,12,29,20.90
2015,07,20,12,30,20.90
2015,07,20,12,31,20.90
2015,07,20,12,32,20.90
2015,07,20,12,33,21.00
2015,07,20,12,34,21.00
2015,07,20,12,35,21.00
2015,07,20,12,36,21.10
2015,07,20,12,37,21.10
2015,07,20,12,38,21.20
2015,07,20,12,39,21.30
2015,07,20,12,40,21.30
2015,07,20,12,41,21.30
2015,07,20,12,42,21.30
2015,07,20,12,43,21.40
2015,07,20,12,44,21.40
2015,07,20,12,45,21.30
2015,07,20,12,46,21.30
2015,07,20,12,47,21.20
2015,07,20,12,48,21.20
2015,07,20,12,49,21.20
2015,07,20,12,50,21.20
2015,07,20,12,51,21.10
2015,07,20,12,52,21.10
2015,07,20,12,53,21.00
2015,07,20,12,54,21.00
2015,07,20,12,55,20.90
2015,07,20,12,56,20.90
2015,07,20,12,57,20.90
2015,07,20,12,58,21.00
2015,07,20,12,59,21.00
2015,07,20,13,00,21.00
2015,07,20,13,01,21.00
2015,07,20,13,02,20.90
2015,07,20,13,03,20.90
2015,07,20,13,04,20.80
2015,07,20,13,05,20.80
2015,07,20,13,06,20.90
2015,07,20,13,07,20.90
2015,07,20,13,08,20.90
2015,07,20,13,09,21.00
2015,07,20,13,10,21.00
2015,07,20,13,11,20.90
2015,07,20,13,12,20.90
2015,07,20,13,13,20.90
2015,07,20,13,14,20.90
2015,07,20,13,15,20.90
2015,07,20,13,16,20.90
2015,07,20,13,17,20.90
2015,07,20,13,18,20.90
2015,07,20,13,19,20.90
2015,07,20,13,20,20.90
2015,07,20,13,21,20.90
2015,07,20,13,22,21.00
2015,07,20,13,23,21.00
2015,07,20,13,24,21.10
2015,07,20,13,25,21.20
2015,07,20,13,26,21.20
2015,07,20,13,27,21.20
2015,07,20,13,28,21.20
2015,07,20,13,29,21.20
2015,07,20,13,30,21.10
2015,07,20,13,31,21.10
2015,07,20,13,32,21.10
2015,07,20,13,33,21.10
2015,07,20,13,34,21.10
2015,07,20,13,35,21.10
2015,07,20,13,36,21.20
2015,07,20,13,37,21.20
2015,07,20,13,38,21.20
2015,07,20,13,39,21.30
2015,07,20,13,40,21.30
2015,07,20,13,41,21.30
2015,07,20,13,42,21.30
2015,07,20,13,43,21.30
2015,07,20,13,44,21.30
2015,07,20,13,45,21.30
2015,07,20,13,46,21.30
2015,07,20,13,47,21.20
2015,07,20,13,48,21.20
2015,07,20,13,49,21.10
2015,07,20,13,50,21.10
2015,07,20,13,51,21.10
2015,07,20,13,52,21.10
2015,07,20,13,53,21.10
2015,07,20,13,54,21.10
2015,07,20,13,55,21.10
2015,07,20,13,56,21.10
2015,07,20,13,57,21.00
2015,07,20,13,58,21.00
2015,07,20,13,59,21.00
2015,07,20,14,00,21.00
2015,07,20,14,01,21.10
2015,07,20,14,02,21.10
2015,07,20,14,03,21.10
2015,07,20,14,04,21.10
2015,07,20,14,05,21.10
2015,07,20,14,06,21.10
2015,07,20,14,07,21.10
2015,07,20,14,08,21.20
2015,07,20,14,09,21.20
2015,07,20,14,10,21.20
2015,07,20,14,11,21.10
2015,07,20,14,12,21.10
2015,07,20,14,13,21.00
2015,07,20,14,14,21.00
2015,07,20,14,15,20.90
2015,07,20,14,16,20.90
2015,07,20,14,17,20.90
2015,07,20,14,18,20.90
2015,07,20,14,19,20.90
2015,07,20,14,20,20.90
2015,07,20,14,21,20.90
2015,07,20,14,22,20.90
2015,07,20,14,23,20.90
2015,07,20,14,24,20.90
2015,07,20,14,25,20.90
2015,07,20,14,26,20.90
2015,07,20,14,27,20.80
2015,07,20,14,28,20.80
2015,07,20,14,29,20.80
2015,07,20,14,30,20.70
2015,07,20,14,31,20.60
2015,07,20,14,32,20.60
2015,07,20,14,33,20.60
2015,07,20,14,34,20.50
2015,07,20,14,35,20.40
2015,07,20,14,36,20.40
2015,07,20,14,37,20.30
2015,07,20,14,38,20.30
2015,07,20,14,39,20.30
2015,07,20,14,40,20.20
2015,07,20,14,41,20.20
2015,07,20,14,42,20.20
2015,07,20,14,43,20.30
2015,07,20,14,44,20.30
2015,07,20,14,45,20.40
2015,07,20,14,46,20.40
2015,07,20,14,47,20.40
2015,07,20,14,48,20.40
2015,07,20,14,49,20.40
2015,07,20,14,50,20.40
2015,07,20,14,51,20.50
2015,07,20,14,52,20.40
2015,07,20,14,53,20.40
2015,07,20,14,54,20.50
2015,07,20,14,55,20.60
2015,07,20,14,56,20.60
2015,07,20,14,57,20.80
2015,07,20,14,58,20.80
2015,07,20,14,59,20.90
2015,07,20,15,00,20.90
2015,07,20,15,01,21.00
2015,07,20,15,02,21.10
2015,07,20,15,03,21.10
2015,07,20,15,04,21.20
2015,07,20,15,05,21.30
2015,07,20,15,06,21.30
2015,07,20,15,07,21.40
2015,07,20,15,08,21.40
2015,07,20,15,09,21.40
2015,07,20,15,10,21.30
2015,07,20,15,11,21.30
2015,07,20,15,12,21.20
2015,07,20,15,13,21.20
2015,07,20,15,14,21.10
2015,07,20,15,15,21.10
2015,07,20,15,16,21.10
2015,07,20,15,17,21.00
2015,07,20,15,18,21.00
2015,07,20,15,19,21.00
2015,07,20,15,20,21.10
2015,07,20,15,21,21.10
2015,07,20,15,22,21.20
2015,07,20,15,23,21.20
2015,07,20,15,24,21.30
2015,07,20,15,25,21.30
2015,07,20,15,26,21.40
2015,07,20,15,27,21.50
2015,07,20,15,28,21.60
2015,07,20,15,29,21.70
2015,07,20,15,30,21.70
2015,07,20,15,31,21.80
2015,07,20,15,32,21.90
2015,07,20,15,33,22.00
2015,07,20,15,34,22.10
2015,07,20,15,35,22.10
2015,07,20,15,36,22.20
2015,07,20,15,37,22.10
2015,07,20,15,38,22.10
2015,07,20,15,39,22.10
2015,07,20,15,40,22.00
2015,07,20,15,41,21.90
2015,07,20,15,42,21.80
2015,07,20,15,43,21.80
2015,07,20,15,44,21.80
2015,07,20,15,45,21.80
2015,07,20,15,46,21.80
2015,07,20,15,47,21.80
2015,07,20,15,48,21.80
2015,07,20,15,49,21.80
2015,07,20,15,50,21.80
2015,07,20,15,51,21.80
2015,07,20,15,52,21.80
2015,07,20,15,53,21.90
2015,07,20,15,54,21.90
2015,07,20,15,55,22.00
2015,07,20,15,56,22.00
2015,07,20,15,57,22.00
2015,07,20,15,58,21.90
2015,07,20,15,59,21.80
2015,07,20,16,00,21.70
2015,07,20,16,01,21.60
2015,07,20,16,02,21.60
2015,07,20,16,03,21.60
2015,07,20,16,04,21.50
2015,07,20,16,05,21.50
2015,07,20,16,06,21.40
2015,07,20,16,07,21.40
2015,07,20,16,08,21.40
2015,07,20,16,09,21.40
2015,07,20,16,10,21.40
2015,07,20,16,11,21.40
2015,07,20,16,12,21.40
2015,07,20,16,13,21.50
2015,07,20,16,14,21.40
2015,07,20,16,15,21.40
2015,07,20,16,16,21.40
2015,07,20,16,17,21.50
2015,07,20,16,18,21.60
2015,07,20,16,19,21.60
2015,07,20,16,20,21.70
2015,07,20,16,21,21.70
2015,07,20,16,22,21.70
2015,07,20,16,23,21.70
2015,07,20,16,24,21.70
2015,07,20,16,25,21.70
2015,07,20,16,26,21.70
2015,07,20,16,27,21.70
2015,07,20,16,28,21.70
2015,07,20,16,29,21.70
2015,07,20,16,30,21.70
2015,07,20,16,31,21.70
2015,07,20,16,32,21.70
2015,07,20,16,33,21.70
2015,07,20,16,34,21.70
2015,07,20,16,35,21.80
2015,07,20,16,36,21.90
2015,07,20,16,37,22.00
2015,07,20,16,38,22.10
2015,07,20,16,39,22.20
2015,07,20,16,40,22.20
2015,07,20,16,41,22.20
2015,07,20,16,42,22.30
2015,07,20,16,43,22.30
2015,07,20,16,44,22.40
2015,07,20,16,45,22.40
2015,07,20,16,46,22.50
2015,07,20,16,47,22.60
2015,07,20,16,48,22.60
2015,07,20,16,49,22.50
2015,07,20,16,50,22.40
2015,07,20,16,51,22.40
2015,07,20,16,52,22.30
2015,07,20,16,53,22.20
2015,07,20,16,54,22.10
2015,07,20,16,55,22.10
2015,07,20,16,56,22.10
2015,07,20,16,57,22.10
2015,07,20,16,58,22.10
2015,07,20,16,59,22.10
2015,07,20,17,00,22.10
2015,07,20,17,01,22.20
2015,07,20,17,02,22.30
2015,07,20,17,03,22.30
2015,07,20,17,04,22.40
2015,07,20,17,05,22.40
2015,07,20,17,06,22.40
2015,07,20,17,07,22.50
2015,07,20,17,08,22.60
2015,07,20,17,09,22.70
2015,07,20,17,10,22.80
2015,07,20,17,11,22.90
2015,07,20,17,12,23.00
2015,07,20,17,13,23.10
2015,07,20,17,14,23.20
2015,07,20,17,15,23.30
2015,07,20,17,16,23.30
2015,07,20,17,17,23.40
2015,07,20,17,18,23.40
2015,07,20,17,19,23.50